owner,sensor,date,latitude,longitude,sea_surface_height_above_sea_level,qcFlag 
COMPS,ioos:station:USF.COMPS:FHP:1,2019-02-01T00:00:00Z,28.1530,-82.8010,-9.982,1111122 
COMPS,ioos:station:USF.COMPS:FHP:1,2019-02-01T00:06:00Z,28.1530,-82.8010,-9.983,1111122 
COMPS,ioos:station:USF.COMPS:FHP:1,2019-02-01T00:12:00Z,28.1530,-82.8010,-9.968,1111122 
COMPS,ioos:station:USF.COMPS:FHP:1,2019-02-01T00:18:00Z,28.1530,-82.8010,-9.966,1111122 
COMPS,ioos:station:USF.COMPS:FHP:1,2019-02-01T00:24:00Z,28.1530,-82.8010,-9.94,1111122 
COMPS,ioos:station:USF.COMPS:FHP:1,2019-02-01T00:30:00Z,28.1530,-82.8010,-9.939,1111122 
COMPS,ioos:station:USF.COMPS:FHP:1,2019-02-01T00:36:00Z,28.1530,-82.8010,-9.932,1111122 
COMPS,ioos:station:USF.COMPS:FHP:1,2019-02-01T00:42:00Z,28.1530,-82.8010,-9.943,1111122 
COMPS,ioos:station:USF.COMPS:FHP:1,2019-02-01T00:48:00Z,28.1530,-82.8010,-9.949,1111122 
COMPS,ioos:station:USF.COMPS:FHP:1,2019-02-01T00:54:00Z,28.1530,-82.8010,-9.943,1111122 
COMPS,ioos:station:USF.COMPS:FHP:1,2019-02-01T01:00:00Z,28.1530,-82.8010,-9.953,1111122 
COMPS,ioos:station:USF.COMPS:FHP:1,2019-02-01T01:06:00Z,28.1530,-82.8010,-9.949,1111122 
COMPS,ioos:station:USF.COMPS:FHP:1,2019-02-01T01:12:00Z,28.1530,-82.8010,-9.958,1111122 
COMPS,ioos:station:USF.COMPS:FHP:1,2019-02-01T01:18:00Z,28.1530,-82.8010,-9.953,1111122 
COMPS,ioos:station:USF.COMPS:FHP:1,2019-02-01T01:24:00Z,28.1530,-82.8010,-9.963,1111122 
COMPS,ioos:station:USF.COMPS:FHP:1,2019-02-01T01:30:00Z,28.1530,-82.8010,-9.974,1111122 
COMPS,ioos:station:USF.COMPS:FHP:1,2019-02-01T01:36:00Z,28.1530,-82.8010,-9.973,1111122 
COMPS,ioos:station:USF.COMPS:FHP:1,2019-02-01T01:42:00Z,28.1530,-82.8010,-9.999,1111122 
COMPS,ioos:station:USF.COMPS:FHP:1,2019-02-01T16:06:00Z,28.1530,-82.8010,-9.999,1111122 
COMPS,ioos:station:USF.COMPS:FHP:1,2019-02-01T16:12:00Z,28.1530,-82.8010,-9.997,1111122 
COMPS,ioos:station:USF.COMPS:FHP:1,2019-02-01T16:18:00Z,28.1530,-82.8010,-9.985,1111122 
COMPS,ioos:station:USF.COMPS:FHP:1,2019-02-01T16:24:00Z,28.1530,-82.8010,-9.994,1111122 
COMPS,ioos:station:USF.COMPS:FHP:1,2019-02-01T16:30:00Z,28.1530,-82.8010,-9.991,1111122 
COMPS,ioos:station:USF.COMPS:FHP:1,2019-02-01T16:36:00Z,28.1530,-82.8010,-9.995,1111122 
COMPS,ioos:station:USF.COMPS:FHP:1,2019-02-01T23:00:00Z,28.1530,-82.8010,-9.999,1111122 
COMPS,ioos:station:USF.COMPS:FHP:1,2019-02-01T23:06:00Z,28.1530,-82.8010,-9.977,1111122 
COMPS,ioos:station:USF.COMPS:FHP:1,2019-02-01T23:12:00Z,28.1530,-82.8010,-9.968,1111122 
COMPS,ioos:station:USF.COMPS:FHP:1,2019-02-01T23:18:00Z,28.1530,-82.8010,-9.95,1111122 
COMPS,ioos:station:USF.COMPS:FHP:1,2019-02-01T23:24:00Z,28.1530,-82.8010,-9.943,1111122 
COMPS,ioos:station:USF.COMPS:FHP:1,2019-02-01T23:30:00Z,28.1530,-82.8010,-9.917,1111122 
COMPS,ioos:station:USF.COMPS:FHP:1,2019-02-01T23:36:00Z,28.1530,-82.8010,-9.926,1111122 
COMPS,ioos:station:USF.COMPS:FHP:1,2019-02-01T23:42:00Z,28.1530,-82.8010,-9.908,1111122 
COMPS,ioos:station:USF.COMPS:FHP:1,2019-02-01T23:48:00Z,28.1530,-82.8010,-9.895,1111122 
COMPS,ioos:station:USF.COMPS:FHP:1,2019-02-01T23:54:00Z,28.1530,-82.8010,-9.883,1111122 
COMPS,ioos:station:USF.COMPS:FHP:1,2019-02-02T00:00:00Z,28.1530,-82.8010,-9.856,1111122 
COMPS,ioos:station:USF.COMPS:FHP:1,2019-02-02T00:06:00Z,28.1530,-82.8010,-9.845,1111122 
COMPS,ioos:station:USF.COMPS:FHP:1,2019-02-02T00:12:00Z,28.1530,-82.8010,-9.834,1111122 
COMPS,ioos:station:USF.COMPS:FHP:1,2019-02-02T00:18:00Z,28.1530,-82.8010,-9.82,1111122 
COMPS,ioos:station:USF.COMPS:FHP:1,2019-02-02T00:24:00Z,28.1530,-82.8010,-9.824,1111122 
COMPS,ioos:station:USF.COMPS:FHP:1,2019-02-02T00:30:00Z,28.1530,-82.8010,-9.818,1111122 
COMPS,ioos:station:USF.COMPS:FHP:1,2019-02-02T00:36:00Z,28.1530,-82.8010,-9.784,1111122 
COMPS,ioos:station:USF.COMPS:FHP:1,2019-02-02T00:42:00Z,28.1530,-82.8010,-9.766,1111122 
COMPS,ioos:station:USF.COMPS:FHP:1,2019-02-02T00:48:00Z,28.1530,-82.8010,-9.748,1111122 
COMPS,ioos:station:USF.COMPS:FHP:1,2019-02-02T00:54:00Z,28.1530,-82.8010,-9.738,1111122 
COMPS,ioos:station:USF.COMPS:FHP:1,2019-02-02T01:00:00Z,28.1530,-82.8010,-9.728,1111122 
COMPS,ioos:station:USF.COMPS:FHP:1,2019-02-02T01:06:00Z,28.1530,-82.8010,-9.732,1111122 
COMPS,ioos:station:USF.COMPS:FHP:1,2019-02-02T01:12:00Z,28.1530,-82.8010,-9.738,1111122 
COMPS,ioos:station:USF.COMPS:FHP:1,2019-02-02T01:18:00Z,28.1530,-82.8010,-9.735,1111122 
COMPS,ioos:station:USF.COMPS:FHP:1,2019-02-02T01:24:00Z,28.1530,-82.8010,-9.742,1111122 
COMPS,ioos:station:USF.COMPS:FHP:1,2019-02-02T01:30:00Z,28.1530,-82.8010,-9.742,1111122 
COMPS,ioos:station:USF.COMPS:FHP:1,2019-02-02T01:36:00Z,28.1530,-82.8010,-9.748,1111122 
COMPS,ioos:station:USF.COMPS:FHP:1,2019-02-02T01:42:00Z,28.1530,-82.8010,-9.752,1111122 
COMPS,ioos:station:USF.COMPS:FHP:1,2019-02-02T01:48:00Z,28.1530,-82.8010,-9.743,1111122 
COMPS,ioos:station:USF.COMPS:FHP:1,2019-02-02T01:54:00Z,28.1530,-82.8010,-9.739,1111122 
COMPS,ioos:station:USF.COMPS:FHP:1,2019-02-02T02:00:00Z,28.1530,-82.8010,-9.719,1111122 
COMPS,ioos:station:USF.COMPS:FHP:1,2019-02-02T02:06:00Z,28.1530,-82.8010,-9.719,1111122 
COMPS,ioos:station:USF.COMPS:FHP:1,2019-02-02T02:12:00Z,28.1530,-82.8010,-9.729,1111122 
COMPS,ioos:station:USF.COMPS:FHP:1,2019-02-02T02:18:00Z,28.1530,-82.8010,-9.736,1111122 
COMPS,ioos:station:USF.COMPS:FHP:1,2019-02-02T02:24:00Z,28.1530,-82.8010,-9.749,1111122 
COMPS,ioos:station:USF.COMPS:FHP:1,2019-02-02T02:30:00Z,28.1530,-82.8010,-9.751,1111122 
COMPS,ioos:station:USF.COMPS:FHP:1,2019-02-02T02:36:00Z,28.1530,-82.8010,-9.732,1111122 
COMPS,ioos:station:USF.COMPS:FHP:1,2019-02-02T02:42:00Z,28.1530,-82.8010,-9.727,1111122 
COMPS,ioos:station:USF.COMPS:FHP:1,2019-02-02T02:48:00Z,28.1530,-82.8010,-9.732,1111122 
COMPS,ioos:station:USF.COMPS:FHP:1,2019-02-02T02:54:00Z,28.1530,-82.8010,-9.729,1111122 
COMPS,ioos:station:USF.COMPS:FHP:1,2019-02-02T03:00:00Z,28.1530,-82.8010,-9.703,1111122 
COMPS,ioos:station:USF.COMPS:FHP:1,2019-02-02T03:06:00Z,28.1530,-82.8010,-9.688,1111122 
COMPS,ioos:station:USF.COMPS:FHP:1,2019-02-02T03:12:00Z,28.1530,-82.8010,-9.691,1111122 
COMPS,ioos:station:USF.COMPS:FHP:1,2019-02-02T03:18:00Z,28.1530,-82.8010,-9.711,1111122 
COMPS,ioos:station:USF.COMPS:FHP:1,2019-02-02T03:24:00Z,28.1530,-82.8010,-9.73,1111122 
COMPS,ioos:station:USF.COMPS:FHP:1,2019-02-02T03:30:00Z,28.1530,-82.8010,-9.721,1111122 
COMPS,ioos:station:USF.COMPS:FHP:1,2019-02-02T03:36:00Z,28.1530,-82.8010,-9.771,1111122 
COMPS,ioos:station:USF.COMPS:FHP:1,2019-02-02T03:42:00Z,28.1530,-82.8010,-9.764,1111122 
COMPS,ioos:station:USF.COMPS:FHP:1,2019-02-02T03:48:00Z,28.1530,-82.8010,-9.778,1111122 
COMPS,ioos:station:USF.COMPS:FHP:1,2019-02-02T03:54:00Z,28.1530,-82.8010,-9.783,1111122 
COMPS,ioos:station:USF.COMPS:FHP:1,2019-02-02T04:00:00Z,28.1530,-82.8010,-9.789,1111122 
COMPS,ioos:station:USF.COMPS:FHP:1,2019-02-02T04:06:00Z,28.1530,-82.8010,-9.812,1111122 
COMPS,ioos:station:USF.COMPS:FHP:1,2019-02-02T04:12:00Z,28.1530,-82.8010,-9.834,1111122 
COMPS,ioos:station:USF.COMPS:FHP:1,2019-02-02T04:18:00Z,28.1530,-82.8010,-9.845,1111122 
COMPS,ioos:station:USF.COMPS:FHP:1,2019-02-02T04:24:00Z,28.1530,-82.8010,-9.863,1111122 
COMPS,ioos:station:USF.COMPS:FHP:1,2019-02-02T04:30:00Z,28.1530,-82.8010,-9.864,1111122 
COMPS,ioos:station:USF.COMPS:FHP:1,2019-02-02T04:36:00Z,28.1530,-82.8010,-9.87,1111122 
COMPS,ioos:station:USF.COMPS:FHP:1,2019-02-02T04:42:00Z,28.1530,-82.8010,-9.875,1111122 
COMPS,ioos:station:USF.COMPS:FHP:1,2019-02-02T04:48:00Z,28.1530,-82.8010,-9.89,1111122 
COMPS,ioos:station:USF.COMPS:FHP:1,2019-02-02T04:54:00Z,28.1530,-82.8010,-9.909,1111122 
COMPS,ioos:station:USF.COMPS:FHP:1,2019-02-02T05:00:00Z,28.1530,-82.8010,-9.924,1111122 
COMPS,ioos:station:USF.COMPS:FHP:1,2019-02-02T05:06:00Z,28.1530,-82.8010,-9.939,1111122 
COMPS,ioos:station:USF.COMPS:FHP:1,2019-02-02T05:12:00Z,28.1530,-82.8010,-9.956,1111122 
COMPS,ioos:station:USF.COMPS:FHP:1,2019-02-02T05:18:00Z,28.1530,-82.8010,-9.97,1111122 
COMPS,ioos:station:USF.COMPS:FHP:1,2019-02-02T05:24:00Z,28.1530,-82.8010,-9.995,1111122 
COMPS,ioos:station:USF.COMPS:FHP:1,2019-02-02T15:42:00Z,28.1530,-82.8010,-9.997,1111122 
COMPS,ioos:station:USF.COMPS:FHP:1,2019-02-02T15:48:00Z,28.1530,-82.8010,-9.99,1111122 
COMPS,ioos:station:USF.COMPS:FHP:1,2019-02-02T15:54:00Z,28.1530,-82.8010,-9.974,1111122 
COMPS,ioos:station:USF.COMPS:FHP:1,2019-02-02T16:00:00Z,28.1530,-82.8010,-9.952,1111122 
COMPS,ioos:station:USF.COMPS:FHP:1,2019-02-02T16:06:00Z,28.1530,-82.8010,-9.936,1111122 
COMPS,ioos:station:USF.COMPS:FHP:1,2019-02-02T16:12:00Z,28.1530,-82.8010,-9.922,1111122 
COMPS,ioos:station:USF.COMPS:FHP:1,2019-02-02T16:18:00Z,28.1530,-82.8010,-9.918,1111122 
COMPS,ioos:station:USF.COMPS:FHP:1,2019-02-02T16:24:00Z,28.1530,-82.8010,-9.917,1111122 
COMPS,ioos:station:USF.COMPS:FHP:1,2019-02-02T16:30:00Z,28.1530,-82.8010,-9.911,1111122 
COMPS,ioos:station:USF.COMPS:FHP:1,2019-02-02T16:36:00Z,28.1530,-82.8010,-9.917,1111122 
COMPS,ioos:station:USF.COMPS:FHP:1,2019-02-02T16:42:00Z,28.1530,-82.8010,-9.896,1111122 
COMPS,ioos:station:USF.COMPS:FHP:1,2019-02-02T16:48:00Z,28.1530,-82.8010,-9.893,1111122 
COMPS,ioos:station:USF.COMPS:FHP:1,2019-02-02T16:54:00Z,28.1530,-82.8010,-9.894,1111122 
COMPS,ioos:station:USF.COMPS:FHP:1,2019-02-02T17:00:00Z,28.1530,-82.8010,-9.912,1111122 
COMPS,ioos:station:USF.COMPS:FHP:1,2019-02-02T17:06:00Z,28.1530,-82.8010,-9.908,1111122 
COMPS,ioos:station:USF.COMPS:FHP:1,2019-02-02T17:12:00Z,28.1530,-82.8010,-9.919,1111122 
COMPS,ioos:station:USF.COMPS:FHP:1,2019-02-02T17:18:00Z,28.1530,-82.8010,-9.917,1111122 
COMPS,ioos:station:USF.COMPS:FHP:1,2019-02-02T17:24:00Z,28.1530,-82.8010,-9.929,1111122 
COMPS,ioos:station:USF.COMPS:FHP:1,2019-02-02T17:30:00Z,28.1530,-82.8010,-9.936,1111122 
COMPS,ioos:station:USF.COMPS:FHP:1,2019-02-02T17:36:00Z,28.1530,-82.8010,-9.942,1111122 
COMPS,ioos:station:USF.COMPS:FHP:1,2019-02-02T17:42:00Z,28.1530,-82.8010,-9.946,1111122 
COMPS,ioos:station:USF.COMPS:FHP:1,2019-02-02T17:48:00Z,28.1530,-82.8010,-9.956,1111122 
COMPS,ioos:station:USF.COMPS:FHP:1,2019-02-02T17:54:00Z,28.1530,-82.8010,-9.951,1111122 
COMPS,ioos:station:USF.COMPS:FHP:1,2019-02-02T18:00:00Z,28.1530,-82.8010,-9.963,1111122 
COMPS,ioos:station:USF.COMPS:FHP:1,2019-02-02T18:06:00Z,28.1530,-82.8010,-9.968,1111122 
COMPS,ioos:station:USF.COMPS:FHP:1,2019-02-02T18:12:00Z,28.1530,-82.8010,-9.972,1111122 
COMPS,ioos:station:USF.COMPS:FHP:1,2019-02-02T18:18:00Z,28.1530,-82.8010,-9.976,1111122 
COMPS,ioos:station:USF.COMPS:FHP:1,2019-02-02T18:24:00Z,28.1530,-82.8010,-9.979,1111122 
COMPS,ioos:station:USF.COMPS:FHP:1,2019-02-02T18:30:00Z,28.1530,-82.8010,-9.985,1111122 
COMPS,ioos:station:USF.COMPS:FHP:1,2019-02-02T18:36:00Z,28.1530,-82.8010,-9.988,1111122 
COMPS,ioos:station:USF.COMPS:FHP:1,2019-02-02T23:54:00Z,28.1530,-82.8010,-9.982,1111122 
COMPS,ioos:station:USF.COMPS:FHP:1,2019-02-03T00:00:00Z,28.1530,-82.8010,-9.969,1111122 
COMPS,ioos:station:USF.COMPS:FHP:1,2019-02-03T00:06:00Z,28.1530,-82.8010,-9.956,1111122 
COMPS,ioos:station:USF.COMPS:FHP:1,2019-02-03T00:12:00Z,28.1530,-82.8010,-9.944,1111122 
COMPS,ioos:station:USF.COMPS:FHP:1,2019-02-03T00:18:00Z,28.1530,-82.8010,-9.929,1111122 
COMPS,ioos:station:USF.COMPS:FHP:1,2019-02-03T00:24:00Z,28.1530,-82.8010,-9.905,1111122 
COMPS,ioos:station:USF.COMPS:FHP:1,2019-02-03T00:30:00Z,28.1530,-82.8010,-9.885,1111122 
COMPS,ioos:station:USF.COMPS:FHP:1,2019-02-03T00:36:00Z,28.1530,-82.8010,-9.865,1111122 
COMPS,ioos:station:USF.COMPS:FHP:1,2019-02-03T00:42:00Z,28.1530,-82.8010,-9.848,1111122 
COMPS,ioos:station:USF.COMPS:FHP:1,2019-02-03T00:48:00Z,28.1530,-82.8010,-9.831,1111122 
COMPS,ioos:station:USF.COMPS:FHP:1,2019-02-03T00:54:00Z,28.1530,-82.8010,-9.823,1111122 
COMPS,ioos:station:USF.COMPS:FHP:1,2019-02-03T01:00:00Z,28.1530,-82.8010,-9.81,1111122 
COMPS,ioos:station:USF.COMPS:FHP:1,2019-02-03T01:06:00Z,28.1530,-82.8010,-9.799,1111122 
COMPS,ioos:station:USF.COMPS:FHP:1,2019-02-03T01:12:00Z,28.1530,-82.8010,-9.779,1111122 
COMPS,ioos:station:USF.COMPS:FHP:1,2019-02-03T01:18:00Z,28.1530,-82.8010,-9.765,1111122 
COMPS,ioos:station:USF.COMPS:FHP:1,2019-02-03T01:24:00Z,28.1530,-82.8010,-9.75,1111122 
COMPS,ioos:station:USF.COMPS:FHP:1,2019-02-03T01:30:00Z,28.1530,-82.8010,-9.742,1111122 
COMPS,ioos:station:USF.COMPS:FHP:1,2019-02-03T01:36:00Z,28.1530,-82.8010,-9.73,1111122 
COMPS,ioos:station:USF.COMPS:FHP:1,2019-02-03T01:42:00Z,28.1530,-82.8010,-9.728,1111122 
COMPS,ioos:station:USF.COMPS:FHP:1,2019-02-03T01:48:00Z,28.1530,-82.8010,-9.708,1111122 
COMPS,ioos:station:USF.COMPS:FHP:1,2019-02-03T01:54:00Z,28.1530,-82.8010,-9.696,1111122 
COMPS,ioos:station:USF.COMPS:FHP:1,2019-02-03T02:00:00Z,28.1530,-82.8010,-9.688,1111122 
COMPS,ioos:station:USF.COMPS:FHP:1,2019-02-03T02:06:00Z,28.1530,-82.8010,-9.68,1111122 
COMPS,ioos:station:USF.COMPS:FHP:1,2019-02-03T02:12:00Z,28.1530,-82.8010,-9.67,1111122 
COMPS,ioos:station:USF.COMPS:FHP:1,2019-02-03T02:18:00Z,28.1530,-82.8010,-9.658,1111122 
COMPS,ioos:station:USF.COMPS:FHP:1,2019-02-03T02:24:00Z,28.1530,-82.8010,-9.641,1111122 
COMPS,ioos:station:USF.COMPS:FHP:1,2019-02-03T02:30:00Z,28.1530,-82.8010,-9.636,1111122 
COMPS,ioos:station:USF.COMPS:FHP:1,2019-02-03T02:36:00Z,28.1530,-82.8010,-9.622,1111122 
COMPS,ioos:station:USF.COMPS:FHP:1,2019-02-03T02:42:00Z,28.1530,-82.8010,-9.618,1111122 
COMPS,ioos:station:USF.COMPS:FHP:1,2019-02-03T02:48:00Z,28.1530,-82.8010,-9.605,1111122 
COMPS,ioos:station:USF.COMPS:FHP:1,2019-02-03T02:54:00Z,28.1530,-82.8010,-9.603,1111122 
COMPS,ioos:station:USF.COMPS:FHP:1,2019-02-03T03:00:00Z,28.1530,-82.8010,-9.591,1111122 
COMPS,ioos:station:USF.COMPS:FHP:1,2019-02-03T03:06:00Z,28.1530,-82.8010,-9.587,1111122 
COMPS,ioos:station:USF.COMPS:FHP:1,2019-02-03T03:12:00Z,28.1530,-82.8010,-9.591,1111122 
COMPS,ioos:station:USF.COMPS:FHP:1,2019-02-03T03:18:00Z,28.1530,-82.8010,-9.601,1111122 
COMPS,ioos:station:USF.COMPS:FHP:1,2019-02-03T03:24:00Z,28.1530,-82.8010,-9.604,1111122 
COMPS,ioos:station:USF.COMPS:FHP:1,2019-02-03T03:30:00Z,28.1530,-82.8010,-9.61,1111122 
COMPS,ioos:station:USF.COMPS:FHP:1,2019-02-03T03:36:00Z,28.1530,-82.8010,-9.607,1111122 
COMPS,ioos:station:USF.COMPS:FHP:1,2019-02-03T03:42:00Z,28.1530,-82.8010,-9.618,1111122 
COMPS,ioos:station:USF.COMPS:FHP:1,2019-02-03T03:48:00Z,28.1530,-82.8010,-9.618,1111122 
COMPS,ioos:station:USF.COMPS:FHP:1,2019-02-03T03:54:00Z,28.1530,-82.8010,-9.625,1111122 
COMPS,ioos:station:USF.COMPS:FHP:1,2019-02-03T04:24:00Z,28.1530,-82.8010,-9.661,1111122 
COMPS,ioos:station:USF.COMPS:FHP:1,2019-02-03T04:36:00Z,28.1530,-82.8010,-9.663,1111122 
COMPS,ioos:station:USF.COMPS:FHP:1,2019-02-03T04:42:00Z,28.1530,-82.8010,-9.667,1111122 
COMPS,ioos:station:USF.COMPS:FHP:1,2019-02-03T04:48:00Z,28.1530,-82.8010,-9.679,1111122 
COMPS,ioos:station:USF.COMPS:FHP:1,2019-02-03T04:54:00Z,28.1530,-82.8010,-9.698,1111122 
COMPS,ioos:station:USF.COMPS:FHP:1,2019-02-03T05:00:00Z,28.1530,-82.8010,-9.704,1111122 
COMPS,ioos:station:USF.COMPS:FHP:1,2019-02-03T05:06:00Z,28.1530,-82.8010,-9.715,1111122 
COMPS,ioos:station:USF.COMPS:FHP:1,2019-02-03T05:12:00Z,28.1530,-82.8010,-9.724,1111122 
COMPS,ioos:station:USF.COMPS:FHP:1,2019-02-03T05:18:00Z,28.1530,-82.8010,-9.737,1111122 
COMPS,ioos:station:USF.COMPS:FHP:1,2019-02-03T05:24:00Z,28.1530,-82.8010,-9.755,1111122 
COMPS,ioos:station:USF.COMPS:FHP:1,2019-02-03T05:30:00Z,28.1530,-82.8010,-9.781,1111122 
COMPS,ioos:station:USF.COMPS:FHP:1,2019-02-03T05:36:00Z,28.1530,-82.8010,-9.804,1111122 
COMPS,ioos:station:USF.COMPS:FHP:1,2019-02-03T05:42:00Z,28.1530,-82.8010,-9.823,1111122 
COMPS,ioos:station:USF.COMPS:FHP:1,2019-02-03T05:48:00Z,28.1530,-82.8010,-9.846,1111122 
COMPS,ioos:station:USF.COMPS:FHP:1,2019-02-03T05:54:00Z,28.1530,-82.8010,-9.858,1111122 
COMPS,ioos:station:USF.COMPS:FHP:1,2019-02-03T06:00:00Z,28.1530,-82.8010,-9.88,1111122 
COMPS,ioos:station:USF.COMPS:FHP:1,2019-02-03T06:06:00Z,28.1530,-82.8010,-9.897,1111122 
COMPS,ioos:station:USF.COMPS:FHP:1,2019-02-03T06:12:00Z,28.1530,-82.8010,-9.914,1111122 
COMPS,ioos:station:USF.COMPS:FHP:1,2019-02-03T06:18:00Z,28.1530,-82.8010,-9.933,1111122 
COMPS,ioos:station:USF.COMPS:FHP:1,2019-02-03T06:24:00Z,28.1530,-82.8010,-9.946,1111122 
COMPS,ioos:station:USF.COMPS:FHP:1,2019-02-03T06:30:00Z,28.1530,-82.8010,-9.962,1111122 
COMPS,ioos:station:USF.COMPS:FHP:1,2019-02-03T06:36:00Z,28.1530,-82.8010,-9.98,1111122 
COMPS,ioos:station:USF.COMPS:FHP:1,2019-02-03T15:36:00Z,28.1530,-82.8010,-9.989,1111122 
COMPS,ioos:station:USF.COMPS:FHP:1,2019-02-03T15:42:00Z,28.1530,-82.8010,-9.973,1111122 
COMPS,ioos:station:USF.COMPS:FHP:1,2019-02-03T15:48:00Z,28.1530,-82.8010,-9.962,1111122 
COMPS,ioos:station:USF.COMPS:FHP:1,2019-02-03T15:54:00Z,28.1530,-82.8010,-9.945,1111122 
COMPS,ioos:station:USF.COMPS:FHP:1,2019-02-03T16:00:00Z,28.1530,-82.8010,-9.941,1111122 
COMPS,ioos:station:USF.COMPS:FHP:1,2019-02-03T16:06:00Z,28.1530,-82.8010,-9.926,1111122 
COMPS,ioos:station:USF.COMPS:FHP:1,2019-02-03T16:12:00Z,28.1530,-82.8010,-9.92,1111122 
COMPS,ioos:station:USF.COMPS:FHP:1,2019-02-03T16:18:00Z,28.1530,-82.8010,-9.908,1111122 
COMPS,ioos:station:USF.COMPS:FHP:1,2019-02-03T16:24:00Z,28.1530,-82.8010,-9.902,1111122 
COMPS,ioos:station:USF.COMPS:FHP:1,2019-02-03T16:30:00Z,28.1530,-82.8010,-9.896,1111122 
COMPS,ioos:station:USF.COMPS:FHP:1,2019-02-03T16:36:00Z,28.1530,-82.8010,-9.883,1111122 
COMPS,ioos:station:USF.COMPS:FHP:1,2019-02-03T16:42:00Z,28.1530,-82.8010,-9.881,1111122 
COMPS,ioos:station:USF.COMPS:FHP:1,2019-02-03T16:48:00Z,28.1530,-82.8010,-9.883,1111122 
COMPS,ioos:station:USF.COMPS:FHP:1,2019-02-03T16:54:00Z,28.1530,-82.8010,-9.878,1111122 
COMPS,ioos:station:USF.COMPS:FHP:1,2019-02-03T17:00:00Z,28.1530,-82.8010,-9.881,1111122 
COMPS,ioos:station:USF.COMPS:FHP:1,2019-02-03T17:06:00Z,28.1530,-82.8010,-9.881,1111122 
COMPS,ioos:station:USF.COMPS:FHP:1,2019-02-03T17:12:00Z,28.1530,-82.8010,-9.877,1111122 
COMPS,ioos:station:USF.COMPS:FHP:1,2019-02-03T17:18:00Z,28.1530,-82.8010,-9.881,1111122 
COMPS,ioos:station:USF.COMPS:FHP:1,2019-02-03T17:24:00Z,28.1530,-82.8010,-9.887,1111122 
COMPS,ioos:station:USF.COMPS:FHP:1,2019-02-03T17:30:00Z,28.1530,-82.8010,-9.882,1111122 
COMPS,ioos:station:USF.COMPS:FHP:1,2019-02-03T17:36:00Z,28.1530,-82.8010,-9.891,1111122 
COMPS,ioos:station:USF.COMPS:FHP:1,2019-02-03T17:42:00Z,28.1530,-82.8010,-9.883,1111122 
COMPS,ioos:station:USF.COMPS:FHP:1,2019-02-03T17:48:00Z,28.1530,-82.8010,-9.889,1111122 
COMPS,ioos:station:USF.COMPS:FHP:1,2019-02-03T17:54:00Z,28.1530,-82.8010,-9.891,1111122 
COMPS,ioos:station:USF.COMPS:FHP:1,2019-02-03T18:00:00Z,28.1530,-82.8010,-9.9,1111122 
COMPS,ioos:station:USF.COMPS:FHP:1,2019-02-03T18:06:00Z,28.1530,-82.8010,-9.907,1111122 
COMPS,ioos:station:USF.COMPS:FHP:1,2019-02-03T18:12:00Z,28.1530,-82.8010,-9.909,1111122 
COMPS,ioos:station:USF.COMPS:FHP:1,2019-02-03T18:18:00Z,28.1530,-82.8010,-9.923,1111122 
COMPS,ioos:station:USF.COMPS:FHP:1,2019-02-03T18:24:00Z,28.1530,-82.8010,-9.936,1111122 
COMPS,ioos:station:USF.COMPS:FHP:1,2019-02-03T18:30:00Z,28.1530,-82.8010,-9.937,1111122 
COMPS,ioos:station:USF.COMPS:FHP:1,2019-02-03T18:36:00Z,28.1530,-82.8010,-9.953,1111122 
COMPS,ioos:station:USF.COMPS:FHP:1,2019-02-03T18:42:00Z,28.1530,-82.8010,-9.955,1111122 
COMPS,ioos:station:USF.COMPS:FHP:1,2019-02-03T18:48:00Z,28.1530,-82.8010,-9.962,1111122 
COMPS,ioos:station:USF.COMPS:FHP:1,2019-02-03T18:54:00Z,28.1530,-82.8010,-9.975,1111122 
COMPS,ioos:station:USF.COMPS:FHP:1,2019-02-03T19:00:00Z,28.1530,-82.8010,-9.982,1111122 
COMPS,ioos:station:USF.COMPS:FHP:1,2019-02-03T19:06:00Z,28.1530,-82.8010,-9.997,1111122 
COMPS,ioos:station:USF.COMPS:FHP:1,2019-02-04T00:48:00Z,28.1530,-82.8010,-9.987,1111122 
COMPS,ioos:station:USF.COMPS:FHP:1,2019-02-04T00:54:00Z,28.1530,-82.8010,-9.97,1111122 
COMPS,ioos:station:USF.COMPS:FHP:1,2019-02-04T01:00:00Z,28.1530,-82.8010,-9.956,1111122 
COMPS,ioos:station:USF.COMPS:FHP:1,2019-02-04T01:06:00Z,28.1530,-82.8010,-9.94,1111122 
COMPS,ioos:station:USF.COMPS:FHP:1,2019-02-04T01:12:00Z,28.1530,-82.8010,-9.919,1111122 
COMPS,ioos:station:USF.COMPS:FHP:1,2019-02-04T01:18:00Z,28.1530,-82.8010,-9.903,1111122 
COMPS,ioos:station:USF.COMPS:FHP:1,2019-02-04T01:24:00Z,28.1530,-82.8010,-9.888,1111122 
COMPS,ioos:station:USF.COMPS:FHP:1,2019-02-04T01:30:00Z,28.1530,-82.8010,-9.875,1111122 
COMPS,ioos:station:USF.COMPS:FHP:1,2019-02-04T01:36:00Z,28.1530,-82.8010,-9.862,1111122 
COMPS,ioos:station:USF.COMPS:FHP:1,2019-02-04T01:42:00Z,28.1530,-82.8010,-9.847,1111122 
COMPS,ioos:station:USF.COMPS:FHP:1,2019-02-04T01:48:00Z,28.1530,-82.8010,-9.831,1111122 
COMPS,ioos:station:USF.COMPS:FHP:1,2019-02-04T01:54:00Z,28.1530,-82.8010,-9.815,1111122 
COMPS,ioos:station:USF.COMPS:FHP:1,2019-02-04T02:00:00Z,28.1530,-82.8010,-9.8,1111122 
COMPS,ioos:station:USF.COMPS:FHP:1,2019-02-04T02:06:00Z,28.1530,-82.8010,-9.786,1111122 
COMPS,ioos:station:USF.COMPS:FHP:1,2019-02-04T02:12:00Z,28.1530,-82.8010,-9.771,1111122 
COMPS,ioos:station:USF.COMPS:FHP:1,2019-02-04T02:18:00Z,28.1530,-82.8010,-9.756,1111122 
COMPS,ioos:station:USF.COMPS:FHP:1,2019-02-04T02:24:00Z,28.1530,-82.8010,-9.737,1111122 
COMPS,ioos:station:USF.COMPS:FHP:1,2019-02-04T02:30:00Z,28.1530,-82.8010,-9.72,1111122 
COMPS,ioos:station:USF.COMPS:FHP:1,2019-02-04T02:36:00Z,28.1530,-82.8010,-9.704,1111122 
COMPS,ioos:station:USF.COMPS:FHP:1,2019-02-04T02:42:00Z,28.1530,-82.8010,-9.687,1111122 
COMPS,ioos:station:USF.COMPS:FHP:1,2019-02-04T02:48:00Z,28.1530,-82.8010,-9.675,1111122 
COMPS,ioos:station:USF.COMPS:FHP:1,2019-02-04T02:54:00Z,28.1530,-82.8010,-9.661,1111122 
COMPS,ioos:station:USF.COMPS:FHP:1,2019-02-04T03:00:00Z,28.1530,-82.8010,-9.648,1111122 
COMPS,ioos:station:USF.COMPS:FHP:1,2019-02-04T03:06:00Z,28.1530,-82.8010,-9.636,1111122 
COMPS,ioos:station:USF.COMPS:FHP:1,2019-02-04T03:12:00Z,28.1530,-82.8010,-9.622,1111122 
COMPS,ioos:station:USF.COMPS:FHP:1,2019-02-04T03:18:00Z,28.1530,-82.8010,-9.609,1111122 
COMPS,ioos:station:USF.COMPS:FHP:1,2019-02-04T03:24:00Z,28.1530,-82.8010,-9.597,1111122 
COMPS,ioos:station:USF.COMPS:FHP:1,2019-02-04T03:30:00Z,28.1530,-82.8010,-9.595,1111122 
COMPS,ioos:station:USF.COMPS:FHP:1,2019-02-04T03:36:00Z,28.1530,-82.8010,-9.582,1111122 
COMPS,ioos:station:USF.COMPS:FHP:1,2019-02-04T03:42:00Z,28.1530,-82.8010,-9.577,1111122 
COMPS,ioos:station:USF.COMPS:FHP:1,2019-02-04T03:48:00Z,28.1530,-82.8010,-9.568,1111122 
COMPS,ioos:station:USF.COMPS:FHP:1,2019-02-04T03:54:00Z,28.1530,-82.8010,-9.568,1111122 
COMPS,ioos:station:USF.COMPS:FHP:1,2019-02-04T04:00:00Z,28.1530,-82.8010,-9.561,1111122 
COMPS,ioos:station:USF.COMPS:FHP:1,2019-02-04T04:06:00Z,28.1530,-82.8010,-9.559,1111122 
COMPS,ioos:station:USF.COMPS:FHP:1,2019-02-04T04:12:00Z,28.1530,-82.8010,-9.556,1111122 
COMPS,ioos:station:USF.COMPS:FHP:1,2019-02-04T04:18:00Z,28.1530,-82.8010,-9.562,1111122 
COMPS,ioos:station:USF.COMPS:FHP:1,2019-02-04T04:24:00Z,28.1530,-82.8010,-9.562,1111122 
COMPS,ioos:station:USF.COMPS:FHP:1,2019-02-04T04:30:00Z,28.1530,-82.8010,-9.568,1111122 
COMPS,ioos:station:USF.COMPS:FHP:1,2019-02-04T04:36:00Z,28.1530,-82.8010,-9.573,1111122 
COMPS,ioos:station:USF.COMPS:FHP:1,2019-02-04T04:42:00Z,28.1530,-82.8010,-9.579,1111122 
COMPS,ioos:station:USF.COMPS:FHP:1,2019-02-04T04:48:00Z,28.1530,-82.8010,-9.583,1111122 
COMPS,ioos:station:USF.COMPS:FHP:1,2019-02-04T04:54:00Z,28.1530,-82.8010,-9.588,1111122 
COMPS,ioos:station:USF.COMPS:FHP:1,2019-02-04T05:00:00Z,28.1530,-82.8010,-9.595,1111122 
COMPS,ioos:station:USF.COMPS:FHP:1,2019-02-04T05:06:00Z,28.1530,-82.8010,-9.609,1111122 
COMPS,ioos:station:USF.COMPS:FHP:1,2019-02-04T05:12:00Z,28.1530,-82.8010,-9.617,1111122 
COMPS,ioos:station:USF.COMPS:FHP:1,2019-02-04T05:18:00Z,28.1530,-82.8010,-9.633,1111122 
COMPS,ioos:station:USF.COMPS:FHP:1,2019-02-04T05:24:00Z,28.1530,-82.8010,-9.643,1111122 
COMPS,ioos:station:USF.COMPS:FHP:1,2019-02-04T05:30:00Z,28.1530,-82.8010,-9.663,1111122 
COMPS,ioos:station:USF.COMPS:FHP:1,2019-02-04T05:36:00Z,28.1530,-82.8010,-9.677,1111122 
COMPS,ioos:station:USF.COMPS:FHP:1,2019-02-04T05:42:00Z,28.1530,-82.8010,-9.692,1111122 
COMPS,ioos:station:USF.COMPS:FHP:1,2019-02-04T05:48:00Z,28.1530,-82.8010,-9.71,1111122 